TimeEDT,TemperatureF,Dew PointF,Humidity,Sea Level PressureIn,VisibilityMPH,Wind Direction,Wind SpeedMPH,Gust SpeedMPH,PrecipitationIn,Events,Conditions,WindDirDegrees,DateUTC
12:00 AM,71.1,70.0,96,29.76,7.0,South,4.6,-,0.49,Rain-Thunderstorm,Thunderstorms and Rain,180,1959-09-02 04:00:00
1:00 AM,71.1,70.0,96,29.75,5.0,Calm,Calm,-,0.01,Rain-Thunderstorm,Thunderstorms and Rain,0,1959-09-02 05:00:00
2:00 AM,70.0,70.0,100,29.72,5.0,SSE,6.9,-,0.01,,Drizzle,160,1959-09-02 06:00:00
3:00 AM,70.0,69.1,97,29.71,2.0,SSE,5.8,-,N/A,,Drizzle,160,1959-09-02 07:00:00
4:00 AM,70.0,69.1,97,29.71,10.5,SSE,6.9,-,N/A,,Drizzle,160,1959-09-02 08:00:00
5:00 AM,71.1,70.0,96,29.72,5.5,South,6.9,-,N/A,,Drizzle,180,1959-09-02 09:00:00
6:00 AM,71.1,70.0,96,29.74,4.0,South,8.1,-,N/A,,Drizzle,180,1959-09-02 10:00:00
7:00 AM,71.1,70.0,96,29.74,5.2,South,6.9,-,N/A,,Drizzle,180,1959-09-02 11:00:00
8:00 AM,70.0,69.1,97,29.76,10.5,South,9.2,-,0.05,Rain,Light Rain Showers,180,1959-09-02 12:00:00
9:00 AM,70.0,69.1,97,29.77,2.0,South,10.4,-,0.05,Rain,Rain Showers,180,1959-09-02 13:00:00
10:00 AM,70.0,69.1,97,29.78,3.0,SSW,9.2,-,0.46,Rain,Light Rain Showers,200,1959-09-02 14:00:00
11:00 AM,70.0,70.0,100,29.80,3.0,South,9.2,-,0.03,Rain,Light Rain Showers,180,1959-09-02 15:00:00
12:00 PM,73.9,70.0,87,29.80,4.0,South,11.5,-,N/A,,Drizzle,180,1959-09-02 16:00:00
1:00 PM,75.9,70.0,82,29.79,5.0,SW,15.0,-,N/A,,Drizzle,220,1959-09-02 17:00:00
2:00 PM,77.0,70.0,79,29.79,5.0,SW,11.5,-,N/A,,Drizzle,220,1959-09-02 18:00:00
3:00 PM,75.0,68.0,79,29.79,5.0,NW,13.8,-,N/A,,Drizzle,320,1959-09-02 19:00:00
4:00 PM,75.0,68.0,79,29.79,5.0,NW,6.9,-,N/A,Rain,Light Rain Showers,320,1959-09-02 20:00:00
5:00 PM,78.1,71.1,79,29.80,7.0,SW,9.2,-,N/A,,Drizzle,220,1959-09-02 21:00:00
6:00 PM,77.0,71.1,82,29.81,7.0,West,8.1,-,N/A,,Drizzle,270,1959-09-02 22:00:00
7:00 PM,75.9,66.0,71,29.84,15.0,West,5.8,-,N/A,,Drizzle,270,1959-09-02 23:00:00
8:00 PM,73.9,66.0,76,29.86,10.0,West,5.8,-,N/A,,Drizzle,270,1959-09-03 00:00:00
9:00 PM,72.0,66.0,81,29.89,10.0,Calm,Calm,-,N/A,,Drizzle,0,1959-09-03 01:00:00
10:00 PM,70.0,64.9,84,29.91,15.0,Calm,Calm,-,N/A,,Drizzle,0,1959-09-03 02:00:00
11:00 PM,69.1,64.0,84,29.92,15.0,Calm,Calm,-,N/A,,Drizzle,0,1959-09-03 03:00:00